星链-34725 (STARLINK-34725)

导读 | 豆包AI

STARLINK-34725是美国SpaceX星链星座的一员,于2025年7月19日发射升空,加入已经部署数万颗卫星的星链网络。星链项目旨在构建全球卫星互联网星座,为全球各个角落用户提供高速低延迟的宽带接入服务,该卫星将助力扩展星链覆盖范围与服务能力。

基本信息
目录编号:
64843
目录名称:
STARLINK-34725
国际标识:
2025-152B
轨道中心:
EARTH
卫星名称:
星链-34725
卫星全名:
星链-34725 (STARLINK-34725)
卫星状态:
在轨 (已飞行284 天)
发射日期:
2025-07-19 UTC
国别 :
美国 (US)
星等 :
--
轨道信息
数据来源 国际轨道数据 AOE轨道数据
星历时间 2026-04-29T12:25:26+0800
10小时前
查看轨道信息
2026-04-23T23:00:00+0800
5天前
查看轨道信息
半长轴 6927.634km 6927.669km
偏心率 0.0002345 0.0001848
轨道倾角 97.558° 97.580°
近地点辐角 90.170° 89.316°
升交点赤经 335.218° 329.765°
平近点角 269.980° 36.358°
近地点 547.872km 548.251km
远地点 551.122km 550.813km
周期 95.639分钟 95.640分钟
每日圈数 15.056547 15.056433
详细信息
固有亮度:
5
最大亮度:
2.5
卫星平台:
Starlink V1.0
覆盖范围:
全球
运营商:
太空探索技术公司
运营商所在国:
美国
制造商(研发单位):
太空探索技术公司
制造商所在国:
美国
使用方式:
暂无
卫星简介
Starlink 计划是 SpaceX 推出的全球卫星互联网项目,通过发射低轨道卫星,为全球尤其是偏远地区提供高速、低延迟的互联网服务。自 2019 年起,Starlink 已部署数千颗卫星,旨在缩小全球数字鸿沟,推动互联网普及。该项目还为军事、航空等行业提供通信支持,带来广泛经济效益。
2D轨道图
3D轨道图
轨道高度分析图
轨道倾角分析图
轨道综合分析图
查看轨道综合分析图